Terug naar catalogus

STARLINK-35119

ActiefCommunicatieVLEO
NORAD 65508·PAYLOAD·🇺🇸 United States

Gelanceerd Sep 5, 2025 vanaf Cape Canaveral Space Force Station

Loading…

Volgende Passages (komende 24 uur)

TLE

VersSource: CelesTrak SupGP

Epoch: Sep 14, 2026, 22:58 UTC

1 65508C 25198S   26257.95743056 -.00108130  00000+0 -31961-2 0  2573
2 65508  53.1567 107.9483 0001291  84.9796 256.8376 15.34429999    14

Volg STARLINK-35119 in realtime met AllMySat

Download on the App Store